Location: Treviso
(45.6669°N, 12.2430°E)
Time: 05:01:02
(UTC+02:00)

ISS - Pass Details

Date: 15 November 2017
Orbit: 402 x 409 km, 51.6° (Epoch: 17 August)

Event Time Altitude Azimuth Distance (km) Brightness Sun altitude
Exits shadow 05:06:32 58° 119° (ESE) 474 -3.3 -21.6°
Drops below altitude 10° 05:09:13 10° 120° (ESE) 1,450 -0.1 -21.1°
Enters shadow 06:04:12 -71° 316° (NW) 12,486 3.6 -11.7°
